Regional Weather Roundup
Issued by NWS

Home | Current Version | Previous Version | Text Only | Print | Product List | Glossary On
Versions: 1 2 3 4 5 6 7 8 9 10 11 12 13 14 15 16 17 18 19 20 21 22 23 24 25 26 27 28 29 30 31 32 33 34 35 36 37 38 39 40 41 42 43 44 45 46 47 48 49 50
835
ASCA44 KEWX 131720
RWRMX

LATIN AMERICA AND CARIBBEAN REGIONAL WEATHER ROUNDUP
NATIONAL WEATHER SERVICE AUSTIN/SAN ANTONIO TX
1100 AM CST SAT FEB 13 2016

NOTE: "FAIR" INDICATED FEW OR NO CLOUDS BELOW 12,000 FEET WITH NO
SIGNIFICANT WEATHER AND/OR OBSTRUCTIONS TO VISIBILITY.

BAJA CALIFORNIA

CITY           SKY/WX    TMP DP  RH WIND       PRES   REMARKS
LORETO         MOSUNNY   84  57  39 N12       29.98S
LA PAZ         MOSUNNY   77  41  27 N6        30.02S
MEXICALI       SUNNY     64  21  19 NW3       30.08R
S.J. DEL CABO  MOSUNNY   86  25  10 NW12      29.98S
TIJUANA        MOSUNNY   57  43  58 E3        30.14S

NORTHWESTERN MEXICO

CITY           SKY/WX    TMP DP  RH WIND       PRES   REMARKS
CULIACAN       MOSUNNY   82  54  36 CALM      29.90F
DURANGO        PTSUNNY   59  10  14 CALM      30.43S
GUAYMAS        SUNNY     79  45  29 CALM      29.95R
HERMOSILLO     SUNNY     68  32  26 CALM      30.03S
CD. JUAREZ     MOSUNNY   54  32  43 CALM      30.28S
LOS MOCHIS     PTSUNNY   73  59  60 CALM      29.98S
OBREGON        SUNNY     75  37  25 CALM      29.96R

NORTHEASTERN MEXICO

CITY           SKY/WX    TMP DP  RH WIND       PRES   REMARKS
CHIHUAHUA      MOSUNNY   59  12  15 CALM      30.34F
MATAMOROS      PTSUNNY   73  57  56 E9        30.34S
MONCLOVA         N/A    N/A N/A N/A MISG        N/A
MONTERREY      SUNNY     70  52  52 E6        30.28S
NUEVO LAREDO   MOSUNNY   64  59  82 SE9       30.32S
PIEDRAS NEGRAS CLOUDY    61  55  82 E6        30.34R FOG
REYNOSA        MOSUNNY   70  57  64 E6        30.32S
SALTILLO       MOSUNNY   66  41  39 CALM      30.41S
TORREON        PTSUNNY   66  25  20 CALM      30.35R
CD. VICTORIA   SUNNY     73  57  56 E7        30.30F

WESTERN MEXICO

CITY           SKY/WX    TMP DP  RH WIND       PRES   REMARKS
AGUASCALIENTES MOSUNNY   55  19  24 N13       30.43S
COLIMA         MOSUNNY   81  48  32 N14       30.09S
DEL BAJIO      PTSUNNY   63  18  17 S6        30.43F
GUADALAJARA    PTSUNNY   64  14  14 E7G20     30.33F
MANZANILLO       N/A    N/A N/A N/A MISG        N/A
MAZATLAN       MOSUNNY   79  68  69 CALM      29.97F
P. VALLARTA    MOSUNNY   77  63  61 CALM      29.94F
URUAPAN        MOSUNNY   70  43  37 CALM      30.25S
ZACATECAS      MOSUNNY   61  18  18 SE17      30.43

CENTRAL MEXICO

CITY           SKY/WX    TMP DP  RH WIND       PRES   REMARKS
CUERNAVACA       N/A    N/A N/A N/A MISG        N/A
MEXICO CITY    MOSUNNY   54  27  35 NE7       30.46F
MORELIA        SUNNY     59  27  29 N6        30.37S
POZA RICA      MOSUNNY   72  61  68 CALM      30.35S
PUEBLA         SUNNY     61   1   9 N9        30.43S
QUERETARO      PTSUNNY   57  18  21 E12       30.47S
S. LUIS POTOSI MOSUNNY   55  28  35 E3        30.44S
TAMPICO        SUNNY     75  55  50 E8        30.32S
TOLUCA         MOSUNNY   57  36  44 S3        30.47S

SOUTHERN MEXICO

CITY           SKY/WX    TMP DP  RH WIND       PRES   REMARKS
ACAPULCO       SUNNY     91  48  22 N8        29.92F
B. DE HUATULCO SUNNY     86  63  45 CALM      30.00F
OAXACA         SUNNY     64  36  34 N2        30.38F
P. ESCONDIDO   SUNNY     81  73  78 E10       30.04S
VERACRUZ       CLOUDY    68  64  88 E8        30.31S
ZIHUATANEJO    SUNNY     90  66  45 S2        29.93F HX  92

YUCATAN PENINSULA

CITY           SKY/WX    TMP DP  RH WIND       PRES   REMARKS
CAMPECHE       MOSUNNY   75  61  60 NE12G23   30.23S
CANCUN         MOSUNNY   77  61  57 NE9       30.23F
CHETUMAL       MOSUNNY   77  64  65 NW9       30.20F
CD. DEL CARMEN SUNNY     73  61  64 N9        30.25F
COZUMEL        MOSUNNY   75  63  64 E12G23    30.22S
MERIDA         PTSUNNY   81  57  44 N12       30.25F
MINATITLAN     CLOUDY    73  68  83 N12       30.21R
TAPACHULA      MOSUNNY   88  73  62 CALM      29.96F HX  96
TUX. GUTIERREZ SUNNY     73  55  53 N7        30.17F
VILLAHERMOSA   PTSUNNY   73  63  68 E14       30.27S

CENTRAL AMERICA

CITY           SKY/WX    TMP DP  RH WIND       PRES   REMARKS
BELIZE CITY    MOSUNNY   77  66  69 N7        30.18F
MANAGUA        MOSUNNY   90  66  45 E21       29.92S HX  92

CARIBBEAN

CITY           SKY/WX    TMP DP  RH WIND       PRES   REMARKS
ARUBA          MOSUNNY   86  72  62 E23G36    29.89F HX  92
CURACAO        MOSUNNY   84  72  65 E20       29.94S
KINGSTON       MOSUNNY   84  68  58 S9        30.00F
SAN JUAN       MOSUNNY   82  70  65 E15       30.02F
SANTO DOMINGO  MOSUNNY   88  72  58 S7        30.00F HX  94
ST. CROIX      MOSUNNY   84  68  58 SE13      30.03
ST. KITTS      PTSUNNY   82  70  65 E10       30.00F
ST. MAARTEN    MOSUNNY   84  66  54 SE10      30.03S
ST. THOMAS     PTSUNNY   79  70  73 SE10      30.03

$$





USA.gov is the U.S. government's official web portal to all federal, state and local government web resources and services.